TimeEST,TemperatureF,Dew PointF,Humidity,Sea Level PressureIn,VisibilityMPH,Wind Direction,Wind SpeedMPH,Gust SpeedMPH,PrecipitationIn,Events,Conditions,WindDirDegrees,DateUTC
12:58 AM,42.1,32.0,67,29.89,10.0,North,4.6,-,N/A,,Clear,350,2013-03-02 05:58:00
1:58 AM,44.1,33.1,65,29.89,10.0,WNW,4.6,-,N/A,,Mostly Cloudy,300,2013-03-02 06:58:00
2:58 AM,44.1,34.0,68,29.88,10.0,WNW,6.9,-,N/A,,Overcast,300,2013-03-02 07:58:00
3:58 AM,42.1,33.1,70,29.86,10.0,Calm,Calm,-,N/A,,Clear,0,2013-03-02 08:58:00
4:58 AM,41.0,33.1,73,29.88,10.0,WNW,9.2,-,N/A,,Clear,300,2013-03-02 09:58:00
5:58 AM,41.0,32.0,70,29.88,10.0,WNW,10.4,-,N/A,,Clear,300,2013-03-02 10:58:00
6:58 AM,39.9,32.0,73,29.88,10.0,NW,8.1,-,N/A,,Clear,310,2013-03-02 11:58:00
7:58 AM,42.1,32.0,67,29.91,10.0,WNW,9.2,-,N/A,,Clear,300,2013-03-02 12:58:00
8:58 AM,45.0,33.1,63,29.90,10.0,NNW,6.9,-,N/A,,Scattered Clouds,330,2013-03-02 13:58:00
9:58 AM,46.9,30.0,52,29.87,10.0,NNW,9.2,-,N/A,,Mostly Cloudy,330,2013-03-02 14:58:00
10:58 AM,50.0,30.0,46,29.85,10.0,NNW,13.8,-,N/A,,Overcast,340,2013-03-02 15:58:00
11:58 AM,51.1,28.9,43,29.84,10.0,NNW,8.1,-,N/A,,Mostly Cloudy,330,2013-03-02 16:58:00
12:58 PM,50.0,28.9,44,29.82,10.0,West,6.9,-,N/A,,Mostly Cloudy,280,2013-03-02 17:58:00
1:58 PM,50.0,28.9,44,29.81,10.0,West,5.8,-,N/A,,Mostly Cloudy,260,2013-03-02 18:58:00
2:58 PM,52.0,30.9,45,29.79,10.0,West,10.4,-,N/A,,Scattered Clouds,270,2013-03-02 19:58:00
3:58 PM,51.1,30.0,44,29.79,10.0,NNW,6.9,-,N/A,,Overcast,330,2013-03-02 20:58:00
4:58 PM,48.9,28.9,46,29.80,10.0,North,5.8,-,N/A,,Overcast,350,2013-03-02 21:58:00
5:58 PM,48.9,30.0,48,29.81,10.0,NNW,9.2,-,N/A,,Overcast,330,2013-03-02 22:58:00
6:58 PM,48.0,30.9,52,29.83,10.0,NW,12.7,-,N/A,,Overcast,310,2013-03-02 23:58:00
7:58 PM,46.9,30.9,54,29.83,10.0,NW,10.4,-,N/A,,Overcast,310,2013-03-03 00:58:00
8:58 PM,45.0,30.9,58,29.86,10.0,WNW,9.2,-,N/A,,Clear,300,2013-03-03 01:58:00
9:58 PM,41.0,32.0,70,29.87,10.0,North,6.9,-,N/A,,Clear,350,2013-03-03 02:58:00
10:58 PM,39.0,30.0,70,29.87,10.0,North,6.9,-,N/A,,Clear,350,2013-03-03 03:58:00
11:58 PM,37.9,30.0,73,29.86,10.0,North,8.1,-,N/A,,Partly Cloudy,360,2013-03-03 04:58:00